FW2905 Weather Reports


Display with metric or nautical units.
time (UTC)temp
F
wind
direction
speed
MPH
gust
MPH
rain 1hr
in
rain 24hr
in
rain mn
in
humidity
%
barometer
mb
20260831003044 74 242 4.0 10.0 0.00 0.04 0.04 80 1014.2
20260831002520 74 229 3.0 11.0 0.00 0.04 0.04 80 1014.0
20260831002017 74 247 4.0 11.0 0.00 0.04 0.04 80 1014.0
20260831001551 74 184 2.0 9.0 0.00 0.04 0.04 80 1013.9
20260831001020 74 226 3.0 10.0 0.00 0.04 0.04 80 1013.9
20260831000521 74 238 5.0 10.0 0.00 0.04 0.04 79 1013.8
20260831000041 75 223 2.0 7.0 0.00 0.04 0.04 79 1014.0
20260830235524 75 229 2.0 9.0 0.00 0.04 0.04 79 1013.9
20260830235027 75 192 4.0 10.0 0.00 0.04 0.04 78 1013.8
20260830234603 75 241 4.0 11.0 0.00 0.04 0.04 78 1013.9
20260830234019 75 237 3.0 14.0 0.00 0.04 0.04 78 1014.0
20260830233525 75 219 4.0 14.0 0.00 0.04 0.04 77 1014.0
20260830233044 75 250 5.0 10.0 0.00 0.04 0.04 77 1014.0
20260830232519 76 211 3.0 10.0 0.00 0.04 0.04 77 1014.0
20260830232019 76 214 3.0 9.0 0.00 0.04 0.04 77 1014.0
20260830231546 76 256 4.0 9.0 0.00 0.04 0.04 76 1014.1
20260830231019 76 245 2.0 10.0 0.00 0.04 0.04 76 1014.0
20260830230518 76 234 6.0 10.0 0.00 0.04 0.04 76 1014.1
20260830230042 76 234 6.0 10.0 0.00 0.04 0.04 76 1014.1
20260830225519 76 243 3.0 10.0 0.00 0.04 0.04 75 1014.0
20260830225022 76 200 3.0 13.0 0.00 0.04 0.04 75 1014.0
20260830224542 77 238 5.0 13.0 0.00 0.04 0.04 74 1013.8
20260830224021 77 172 3.0 9.0 0.00 0.04 0.04 75 1014.0
20260830223520 77 136 4.0 9.0 0.00 0.04 0.04 75 1013.8
20260830223041 77 238 6.0 9.0 0.00 0.04 0.04 74 1013.8
20260830222518 77 226 4.0 11.0 0.00 0.04 0.04 74 1013.7
20260830222027 77 272 2.0 11.0 0.00 0.04 0.04 74 1013.6
20260830221543 77 213 5.0 12.0 0.00 0.04 0.04 73 1013.6
20260830221018 78 202 5.0 12.0 0.00 0.04 0.04 73 1013.6
20260830220518 78 196 3.0 11.0 0.00 0.04 0.04 73 1013.6
20260830220042 78 251 5.0 12.0 0.00 0.04 0.04 72 1013.6
20260830215521 78 259 3.0 12.0 0.00 0.04 0.04 72 1013.6
20260830215020 78 207 6.0 12.0 0.00 0.04 0.04 72 1013.5
20260830214540 78 247 6.0 12.0 0.00 0.04 0.04 71 1013.4
20260830214016 78 223 5.0 12.0 0.00 0.04 0.04 70 1013.3
20260830213531 79 254 6.0 14.0 0.00 0.04 0.04 70 1013.3
20260830213040 79 213 5.0 14.0 0.00 0.04 0.04 70 1013.3
20260830212519 79 225 8.0 14.0 0.00 0.04 0.04 69 1013.3
20260830212025 80 243 5.0 14.0 0.00 0.04 0.04 68 1013.3
20260830211537 80 273 7.0 15.0 0.00 0.04 0.04 67 1013.5
20260830211023 80 232 6.0 16.0 0.00 0.04 0.04 65 1013.4
20260830210520 81 190 6.0 16.0 0.00 0.04 0.04 65 1013.3
20260830210042 81 207 5.0 15.0 0.00 0.04 0.04 66 1013.4
20260830205518 80 236 8.0 15.0 0.00 0.04 0.04 66 1013.3
20260830205022 81 226 5.0 14.0 0.00 0.04 0.04 65 1013.2
20260830204543 81 219 5.0 14.0 0.00 0.04 0.04 65 1013.2
20260830204021 81 187 4.0 16.0 0.00 0.04 0.04 65 1013.3
20260830203519 81 251 5.0 15.0 0.00 0.04 0.04 64 1013.4
20260830203041 81 265 9.0 15.0 0.00 0.04 0.04 64 1013.5
20260830202524 82 285 5.0 15.0 0.00 0.04 0.04 64 1013.4
20260830202021 82 258 7.0 15.0 0.00 0.04 0.04 64 1013.3
20260830201604 83 281 5.0 13.0 0.00 0.04 0.04 64 1013.3
20260830201021 82 249 4.0 20.0 0.00 0.04 0.04 63 1013.3
20260830200521 82 294 11.0 20.0 0.00 0.04 0.04 62 1013.5
20260830200044 82 252 9.0 21.0 0.00 0.04 0.04 62 1013.5
20260830195519 82 263 12.0 21.0 0.00 0.04 0.04 62 1013.5
20260830195021 82 240 11.0 21.0 0.00 0.04 0.04 61 1013.5
20260830194546 83 277 10.0 20.0 0.00 0.04 0.04 61 1013.6
20260830194019 83 253 8.0 20.0 0.00 0.04 0.04 62 1013.6
20260830193520 83 248 11.0 23.0 0.00 0.04 0.04 62 1013.6
20260830193042 83 188 10.0 23.0 0.00 0.04 0.04 62 1013.7
20260830192518 83 230 9.0 23.0 0.00 0.04 0.04 61 1013.7
20260830192021 83 214 10.0 27.0 0.00 0.04 0.04 60 1013.8
20260830191544 84 242 11.0 27.0 0.00 0.04 0.04 59 1013.8
20260830191026 84 255 10.0 24.0 0.00 0.04 0.04 60 1013.8
20260830190521 84 241 8.0 21.0 0.00 0.04 0.04 60 1013.8
20260830190046 83 292 11.0 21.0 0.00 0.04 0.04 61 1013.7
20260830185520 84 179 12.0 21.0 0.00 0.04 0.04 59 1013.8
20260830185019 84 165 10.0 19.0 0.00 0.04 0.04 59 1013.7
20260830184544 83 227 10.0 19.0 0.00 0.04 0.04 59 1013.5
20260830184019 84 317 8.0 23.0 0.00 0.04 0.04 59 1013.3
20260830183525 83 249 7.0 23.0 0.00 0.04 0.04 58 1013.1
20260830183039 84 245 7.0 19.0 0.00 0.04 0.04 58 1013.0
20260830182519 85 300 9.0 17.0 0.00 0.04 0.04 57 1012.9
20260830182018 85 260 9.0 16.0 0.00 0.04 0.04 56 1012.9
20260830181558 86 238 4.0 16.0 0.00 0.04 0.04 57 1012.8
20260830181021 85 208 6.0 14.0 0.00 0.04 0.04 58 1012.8
20260830180523 85 182 6.0 16.0 0.00 0.04 0.04 58 1012.9
20260830180039 84 144 8.0 16.0 0.00 0.04 0.04 58 1012.9
20260830175520 84 235 10.0 16.0 0.00 0.04 0.04 57 1012.8
20260830175024 85 221 5.0 15.0 0.00 0.04 0.04 57 1012.9
20260830174534 85 231 4.0 15.0 0.00 0.04 0.04 58 1012.9
20260830174020 84 180 8.0 15.0 0.00 0.04 0.04 58 1012.9
20260830173515 85 284 7.0 16.0 0.00 0.04 0.04 56 1013.1
20260830173039 84 290 7.0 18.0 0.00 0.04 0.04 58 1013.0
20260830172515 84 287 9.0 18.0 0.00 0.04 0.04 57 1013.0
20260830172019 84 197 7.0 15.0 0.00 0.04 0.04 59 1013.0
20260830171539 84 178 7.0 15.0 0.00 0.04 0.04 60 1013.1
20260830171022 84 212 7.0 14.0 0.00 0.04 0.04 60 1013.2
20260830170521 83 205 7.0 14.0 0.00 0.04 0.04 60 1013.2
20260830170037 84 204 6.0 13.0 0.00 0.04 0.04 59 1013.1
20260830165516 84 204 5.0 12.0 0.00 0.04 0.04 67 1013.0
20260830165019 83 171 6.0 17.0 0.00 0.04 0.04 67 1013.3
20260830164539 83 249 6.0 17.0 0.00 0.04 0.04 67 1013.3
20260830164020 82 196 8.0 17.0 0.00 0.04 0.04 67 1013.3
20260830163520 82 155 8.0 16.0 0.00 0.04 0.04 67 1013.4
20260830163036 83 238 7.0 16.0 0.00 0.04 0.04 67 1013.4
20260830162519 82 192 7.0 17.0 0.00 0.04 0.04 67 1013.5
20260830162017 82 206 7.0 17.0 0.00 0.04 0.04 67 1013.5
20260830161535 82 263 5.0 15.0 0.00 0.04 0.04 67 1013.5
20260830161019 82 253 6.0 15.0 0.00 0.04 0.04 67 1013.6
20260830160516 81 222 6.0 13.0 0.00 0.04 0.04 67 1013.7
20260830160039 81 270 6.0 13.0 0.00 0.04 0.04 67 1013.7
20260830155521 81 209 7.0 13.0 0.00 0.04 0.04 67 1013.7
20260830155019 81 167 3.0 10.0 0.00 0.04 0.04 67 1013.8
20260830154539 81 200 5.0 10.0 0.00 0.04 0.04 66 1013.8
20260830154021 80 211 2.0 7.0 0.00 0.04 0.04 69 1013.9
20260830153517 79 132 2.0 8.0 0.00 0.04 0.04 72 1013.7
20260830153045 79 175 2.0 8.0 0.00 0.04 0.04 73 1013.8
20260830152519 78 190 5.0 8.0 0.00 0.04 0.04 74 1013.8
20260830152016 78 169 4.0 9.0 0.00 0.04 0.04 73 1014.1
20260830151539 78 179 4.0 10.0 0.00 0.04 0.04 74 1014.0
20260830151026 77 172 4.0 12.0 0.00 0.04 0.04 73 1014.1
20260830150522 77 182 4.0 12.0 0.00 0.04 0.04 74 1014.0
20260830150047 77 143 6.0 10.0 0.00 0.04 0.04 76 1013.9
20260830145520 76 157 5.0 11.0 0.00 0.04 0.04 75 1014.0
20260830145019 76 158 6.0 10.0 0.00 0.04 0.04 76 1014.0
20260830144543 75 211 5.0 10.0 0.00 0.04 0.04 76 1014.0
20260830144020 76 146 5.0 10.0 0.00 0.04 0.04 77 1014.0
20260830143520 75 196 3.0 9.0 0.00 0.04 0.04 79 1014.0
20260830143045 74 161 4.0 8.0 0.00 0.04 0.04 78 1013.9
20260830142518 74 159 5.0 8.0 0.00 0.04 0.04 80 1014.0
20260830142027 74 152 4.0 8.0 0.00 0.04 0.04 80 1014.1
20260830141538 73 219 4.0 8.0 0.00 0.04 0.04 80 1014.1
20260830141025 73 142 4.0 8.0 0.00 0.04 0.04 81 1014.1
20260830140519 73 186 4.0 8.0 0.00 0.04 0.04 81 1014.1
20260830140045 72 160 4.0 10.0 0.00 0.04 0.04 82 1014.0
20260830135522 72 147 5.0 10.0 0.00 0.04 0.04 83 1014.0
20260830135020 72 165 3.0 9.0 0.00 0.04 0.04 84 1014.1
20260830134543 71 139 5.0 9.0 0.00 0.04 0.04 84 1014.2
20260830134022 71 179 4.0 9.0 0.00 0.04 0.04 84 1014.4
20260830133522 71 172 4.0 9.0 0.00 0.04 0.04 86 1014.4
20260830133043 70 171 3.0 7.0 0.00 0.04 0.04 87 1014.4
20260830132520 70 148 2.0 7.0 0.00 0.04 0.04 88 1014.5
20260830132021 69 155 2.0 4.0 0.00 0.04 0.04 89 1014.6
20260830131539 69 140 1.0 4.0 0.00 0.04 0.04 90 1014.6
20260830131021 68 133 2.0 4.0 0.00 0.04 0.04 91 1014.7
20260830130524 68 155 1.0 4.0 0.00 0.04 0.04 91 1014.6
20260830130045 67 175 2.0 4.0 0.00 0.04 0.04 91 1014.7
20260830125519 67 140 1.0 3.0 0.00 0.04 0.04 91 1014.7
20260830125016 67 117 1.0 3.0 0.00 0.04 0.04 92 1014.7
20260830124538 67 0 0.0 2.0 0.00 0.04 0.04 92 1014.7
20260830124024 67 125 0.0 2.0 0.00 0.04 0.04 92 1014.7
20260830123526 67 140 0.0 2.0 0.00 0.04 0.04 92 1014.7
20260830123040 67 147 1.0 2.0 0.00 0.04 0.04 92 1014.6
20260830122518 66 147 1.0 2.0 0.00 0.04 0.04 92 1014.6
20260830122020 66 143 0.0 2.0 0.00 0.04 0.04 93 1014.6
20260830121545 66 135 1.0 2.0 0.00 0.04 0.04 93 1014.5
20260830121019 66 0 0.0 2.0 0.00 0.04 0.04 93 1014.5
20260830120521 66 0 0.0 2.0 0.00 0.04 0.04 93 1014.6
20260830120048 65 88 0.0 2.0 0.00 0.04 0.04 93 1014.6
20260830115518 65 0 0.0 2.0 0.00 0.04 0.04 93 1014.6
20260830115016 65 88 0.0 2.0 0.00 0.04 0.04 93 1014.6
20260830114552 65 88 0.0 2.0 0.00 0.04 0.04 93 1014.5
20260830114019 65 0 0.0 0.0 0.00 0.04 0.04 93 1014.6
20260830113522 65 0 0.0 2.0 0.00 0.04 0.04 93 1014.6
20260830113039 66 0 0.0 2.0 0.00 0.04 0.04 93 1014.5
20260830112519 66 0 0.0 2.0 0.00 0.04 0.04 93 1014.5
20260830112019 66 0 0.0 0.0 0.00 0.04 0.04 93 1014.4
20260830111543 66 0 0.0 2.0 0.00 0.04 0.04 93 1014.3
20260830111020 66 0 0.0 2.0 0.00 0.04 0.04 93 1014.3
20260830110519 66 88 0.0 2.0 0.00 0.04 0.04 93 1014.2
20260830110043 66 0 0.0 1.0 0.00 0.04 0.04 93 1014.1
20260830105520 66 0 0.0 2.0 0.00 0.04 0.04 93 1014.1
20260830105018 66 0 0.0 2.0 0.00 0.04 0.04 93 1014.0
20260830104539 66 88 0.0 2.0 0.01 0.04 0.04 93 1014.0
20260830104024 66 0 0.0 2.0 0.01 0.04 0.04 92 1014.0
20260830103523 66 0 0.0 2.0 0.01 0.04 0.04 92 1014.0
20260830103047 66 0 0.0 2.0 0.01 0.04 0.04 92 1014.0
20260830102523 66 88 0.0 2.0 0.01 0.04 0.04 92 1014.0
20260830102017 66 0 0.0 2.0 0.04 0.04 0.04 92 1014.1
20260830101546 66 88 0.0 1.0 0.04 0.04 0.04 92 1014.0
20260830101021 66 0 0.0 2.0 0.04 0.04 0.04 91 1014.0
20260830100519 66 0 0.0 2.0 0.04 0.04 0.04 91 1014.1
20260830100042 66 88 0.0 1.0 0.04 0.04 0.04 91 1014.1
20260830095522 66 0 0.0 2.0 0.04 0.04 0.04 90 1014.1
20260830095022 67 0 0.0 2.0 0.04 0.04 0.04 89 1014.1
20260830094606 67 176 0.0 2.0 0.03 0.03 0.03 88 1014.1
20260830094019 67 0 0.0 2.0 0.03 0.03 0.03 87 1014.1
20260830093521 68 216 0.0 6.0 0.03 0.03 0.03 86 1014.1
20260830093043 68 160 1.0 6.0 0.03 0.03 0.03 86 1014.1
20260830092520 68 153 3.0 6.0 0.02 0.02 0.02 85 1014.0
20260830092022 68 167 2.0 5.0 0.00 0.00 0.00 84 1014.1
20260830091541 68 160 3.0 5.0 0.00 0.00 0.00 84 1014.1
20260830091031 68 175 3.0 7.0 0.00 0.00 0.00 84 1014.0
20260830090521 68 176 3.0 7.0 0.00 0.00 0.00 83 1013.9
20260830090047 69 181 2.0 7.0 0.00 0.00 0.00 83 1014.0
20260830085523 69 221 3.0 7.0 0.00 0.00 0.00 83 1014.2
20260830085022 69 169 2.0 7.0 0.00 0.00 0.00 83 1014.1
20260830084540 69 177 3.0 7.0 0.00 0.00 0.00 83 1014.1
20260830084020 69 168 2.0 5.0 0.00 0.00 0.00 83 1014.0
20260830083518 69 176 2.0 4.0 0.00 0.00 0.00 82 1014.1
20260830083041 69 211 1.0 8.0 0.00 0.00 0.00 82 1014.1
20260830082519 69 184 3.0 8.0 0.00 0.00 0.00 82 1014.2
20260830082020 69 178 4.0 9.0 0.00 0.00 0.00 82 1014.2
20260830081540 69 191 2.0 9.0 0.00 0.00 0.00 82 1014.3
20260830081021 69 143 4.0 7.0 0.00 0.00 0.00 82 1014.2
20260830080523 69 181 2.0 8.0 0.00 0.00 0.00 82 1014.2
20260830080047 69 161 3.0 8.0 0.00 0.00 0.00 82 1014.2
20260830075522 69 174 3.0 9.0 0.00 0.00 0.00 82 1014.3
20260830075021 69 219 2.0 9.0 0.00 0.00 0.00 82 1014.4
20260830074540 69 207 3.0 10.0 0.00 0.00 0.00 82 1014.4
20260830074017 69 174 4.0 10.0 0.00 0.00 0.00 82 1014.3
20260830073519 69 202 3.0 10.0 0.00 0.00 0.00 82 1014.4
20260830073046 69 161 4.0 10.0 0.00 0.00 0.00 82 1014.5
20260830072521 69 171 4.0 9.0 0.00 0.00 0.00 83 1014.5
20260830072019 69 212 3.0 9.0 0.00 0.00 0.00 83 1014.4
20260830071541 69 173 4.0 9.0 0.00 0.00 0.00 83 1014.5
20260830071020 69 163 4.0 9.0 0.00 0.00 0.00 83 1014.5
20260830070524 69 223 4.0 8.0 0.00 0.00 0.00 82 1014.6
20260830070042 69 186 5.0 8.0 0.00 0.00 0.00 82 1014.6
20260830065526 69 190 3.0 8.0 0.00 0.00 0.00 82 1015.0
20260830065021 69 208 3.0 8.0 0.00 0.00 0.00 82 1015.1
20260830064545 69 144 4.0 8.0 0.00 0.00 0.00 82 1015.2
20260830064021 69 175 3.0 7.0 0.00 0.00 0.00 82 1015.1
20260830063520 69 161 4.0 7.0 0.00 0.00 0.00 82 1015.2
20260830063046 69 193 2.0 7.0 0.00 0.00 0.00 82 1015.2
20260830062522 69 167 4.0 7.0 0.00 0.00 0.00 82 1015.2
20260830062024 69 138 4.0 8.0 0.00 0.00 0.00 82 1015.3
20260830061549 69 190 3.0 8.0 0.00 0.00 0.00 82 1015.5
20260830061018 69 170 4.0 8.0 0.00 0.00 0.00 81 1015.6
20260830060525 69 198 3.0 7.0 0.00 0.00 0.00 82 1015.7
20260830060039 69 159 3.0 7.0 0.00 0.00 0.00 82 1015.7
20260830055520 69 174 2.0 7.0 0.00 0.00 0.00 82 1015.8
20260830055021 69 157 3.0 7.0 0.00 0.00 0.00 82 1015.8
20260830054546 69 178 2.0 7.0 0.00 0.00 0.00 82 1015.9
20260830054018 69 142 4.0 7.0 0.00 0.00 0.00 81 1015.8
20260830053521 69 155 2.0 7.0 0.00 0.00 0.00 81 1016.0
20260830053039 69 171 3.0 6.0 0.00 0.00 0.00 81 1016.1
20260830052519 69 190 2.0 8.0 0.00 0.00 0.00 81 1016.1
20260830052021 69 163 2.0 8.0 0.00 0.00 0.00 81 1016.1
20260830051537 69 180 3.0 7.0 0.00 0.00 0.00 81 1016.1
20260830051021 69 127 3.0 7.0 0.00 0.00 0.00 81 1015.9
20260830050520 69 186 3.0 8.0 0.00 0.00 0.00 81 1016.1
20260830050045 69 171 3.0 8.0 0.00 0.00 0.00 81 1016.1
20260830045524 70 180 3.0 9.0 0.00 0.00 0.00 80 1016.0
20260830045022 70 165 4.0 9.0 0.00 0.00 0.00 80 1016.0
20260830044538 70 180 4.0 8.0 0.00 0.00 0.00 80 1015.9
20260830044021 70 135 4.0 8.0 0.00 0.00 0.00 80 1016.0
20260830043527 70 202 3.0 7.0 0.00 0.00 0.00 80 1016.1
20260830043048 70 180 3.0 7.0 0.00 0.00 0.00 80 1016.0
20260830042521 69 171 3.0 8.0 0.00 0.00 0.00 80 1016.0
20260830042021 70 132 4.0 8.0 0.00 0.00 0.00 80 1016.0
20260830041542 69 171 4.0 8.0 0.00 0.00 0.00 80 1016.0
20260830041017 69 150 4.0 8.0 0.00 0.00 0.00 80 1016.1
20260830040518 70 163 4.0 7.0 0.00 0.00 0.00 80 1016.1
20260830040057 70 160 2.0 7.0 0.00 0.00 0.00 80 1016.2
20260830035519 70 165 3.0 7.0 0.00 0.00 0.00 80 1016.2
20260830035021 70 178 3.0 6.0 0.00 0.00 0.00 80 1016.2
20260830034540 70 153 3.0 6.0 0.00 0.00 0.00 80 1016.2
20260830034020 70 179 3.0 6.0 0.00 0.00 0.00 80 1016.1
20260830033526 70 171 3.0 8.0 0.00 0.00 0.00 80 1016.2
20260830033039 70 180 3.0 8.0 0.00 0.00 0.00 80 1016.2
20260830032521 70 174 3.0 8.0 0.00 0.00 0.00 80 1016.3
20260830032025 70 163 3.0 9.0 0.00 0.00 0.00 80 1016.3
20260830031538 70 184 5.0 9.0 0.00 0.00 0.00 80 1016.4
20260830031019 70 160 3.0 7.0 0.00 0.00 0.00 80 1016.3
20260830030519 69 155 2.0 7.0 0.00 0.00 0.00 80 1016.3
20260830030043 69 179 2.0 7.0 0.00 0.00 0.00 80 1016.2
20260830025522 69 153 2.0 7.0 0.00 0.00 0.00 80 1016.2
20260830025020 69 157 3.0 7.0 0.00 0.00 0.00 80 1016.0
20260830024540 69 161 4.0 7.0 0.00 0.00 0.00 80 1016.2
20260830024019 69 148 2.0 7.0 0.00 0.00 0.00 80 1016.1
20260830023523 69 148 2.0 6.0 0.00 0.00 0.00 81 1016.1
20260830023039 69 126 2.0 7.0 0.00 0.00 0.00 80 1016.2
20260830022517 69 156 3.0 7.0 0.00 0.00 0.00 80 1016.3
20260830022026 69 159 3.0 6.0 0.00 0.00 0.00 80 1016.3
20260830021542 69 142 3.0 7.0 0.00 0.00 0.00 80 1016.3
20260830021018 69 163 3.0 7.0 0.00 0.00 0.00 80 1016.3
20260830020519 69 163 2.0 7.0 0.00 0.00 0.00 80 1016.2
20260830020043 69 175 2.0 8.0 0.00 0.00 0.00 81 1016.1
20260830015521 69 167 4.0 9.0 0.00 0.00 0.00 81 1016.0
20260830015024 69 139 3.0 9.0 0.00 0.00 0.00 81 1015.9
20260830014539 69 123 2.0 9.0 0.00 0.00 0.00 82 1015.8
20260830014019 69 142 3.0 9.0 0.00 0.00 0.00 82 1015.8
20260830013519 69 171 4.0 9.0 0.00 0.00 0.00 82 1015.9
20260830013048 69 153 4.0 11.0 0.00 0.00 0.00 83 1016.0
20260830012523 69 151 5.0 11.0 0.00 0.00 0.00 83 1015.9
20260830012021 69 145 4.0 8.0 0.00 0.00 0.00 83 1015.8
20260830011547 69 161 3.0 7.0 0.00 0.00 0.00 83 1015.8
20260830011022 69 162 2.0 10.0 0.00 0.00 0.00 84 1015.7
20260830010521 69 181 4.0 10.0 0.00 0.00 0.00 84 1015.7
20260830010042 69 163 3.0 9.0 0.00 0.00 0.00 84 1015.7
20260830005518 69 153 4.0 9.0 0.00 0.00 0.00 84 1015.8
20260830005019 69 163 4.0 9.0 0.00 0.00 0.00 85 1015.8
20260830004541 69 147 4.0 10.0 0.00 0.00 0.00 85 1015.8
20260830004018 69 154 2.0 11.0 0.00 0.00 0.00 85 1015.8
20260830003518 69 179 4.0 12.0 0.00 0.00 0.00 85 1015.9